Location: Peebles
(55.6412°N, 3.1714°W)
Time: 20:32:55
(UTC+01:00)

deb AGENA D - Pass Details

Date: 05 July 2022
Orbit: 951 x 1019 km, 99.8° (Epoch: 17 August)

Event Time Altitude Azimuth Distance (km) Brightness Sun altitude
Exits shadow 02:06:31 11° 167° (SSE) 2,760 ? -10.9°
Maximum altitude 02:12:44 76° 253° (WSW) 1,055 ? -10.7°
Drops below altitude 10° 02:19:06 10° 340° (NNW) 2,810 ? -10.5°
Sets 02:21:36 0° 342° (NNW) 3,758 ? -10.4°
